Location: Dayton
(39.7590°N, 84.1920°W)
Time: 15:07:27
(UTC-04:00)

ATLAS CENTAUR R/B - Visible Passes

Search period start: 01 September 2014 00:00
Search period end: 11 September 2014 00:00
Orbit: 233 x 9488 km, 57.3° (Epoch: 30 May)

Date Brightness Start Highest point End Pass type
(mag) Time Alt. Az. Time Alt. Az. Time Alt. Az.
01 Sep 8.8 20:24:33 10° NW 20:56:15 24° W 21:36:52 10° SW visible
02 Sep 8.5 19:04:11 10° NW 19:42:42 40° W 20:35:29 10° SSW visible
04 Sep 5.9 06:21:54 10° SE 06:26:15 17° E 06:34:04 10° NE visible
04 Sep 8.9 20:03:04 10° NW 20:33:54 24° W 21:13:51 10° SW visible
07 Sep 5.8 05:59:16 10° SE 06:03:28 17° E 06:10:55 10° NE visible
07 Sep 9.0 19:39:50 10° NW 20:10:04 23° W 20:49:43 10° SW visible
10 Sep 5.7 05:35:13 10° SE 05:39:12 16° E 05:46:03 10° ENE visible
10 Sep 8.9 19:14:52 10° NW 19:44:45 23° W 20:24:29 10° SW visible
